Regional Weather Roundup
Issued by NWS

Home | Current Version | Previous Version | Text Only | Print | Product List | Glossary Off
Versions: 1 2 3 4 5 6 7 8 9 10 11 12 13 14 15 16 17 18 19 20 21 22 23 24 25 26 27 28 29 30 31 32 33 34 35 36 37 38 39 40 41 42 43 44 45 46 47 48 49 50

000
ASUS43 KMPX 310401
RWRMN
WEATHER ROUNDUP FOR MINNESOTA
NATIONAL WEATHER SERVICE TWIN CITIES/CHANHASSEN MN
1100 PM CDT SAT AUG 30 2014


NOTE: "FAIR" INDICATES FEW OR NO CLOUDS BELOW 12,000 FEET WITH NO
SIGNIFICANT WEATHER AND/OR OBSTRUCTIONS TO VISIBILITY. N/A MEANS
CURRENT SKY AND/OR WEATHER CONDITIONS ARE NOT AVAILABLE.

MNZ060>063-068>070-310500-
   Twin Cities Metro

CITY           SKY/WX    TMP DP  RH WIND       PRES   REMARKS
TWIN CITIES    MOCLDY    67  61  81 SE7       29.88S
ST PAUL        CLOUDY    66  61  84 SE7       29.89R
CRYSTAL        PTCLDY    69  60  73 E3        29.87R
BLAINE         MOCLDY    68  63  83 E5        29.88S
LAKEVILLE      MOCLDY    63  63 100 E3        29.89S
EDEN PRAIRIE   CLEAR     65  63  93 SE3       29.87S
SOUTH ST PAUL  CLOUDY    67  60  79 SE3       29.89R
LAKE ELMO      CLOUDY    64  63  94 E3        29.90S
$$
MNZ001>005-007-008-013>017-022>024-027-028-310500-
   Northwest Minnesota

CITY           SKY/WX    TMP DP  RH WIND       PRES   REMARKS
BEMIDJI        CLOUDY    62  59  90 SE6       29.85S
HALLOCK        CLEAR     59  54  82 SE9       29.77F
ROSEAU         CLEAR     57  52  82 E5        29.82S
WARROAD        CLEAR     55  52  88 S3        29.83F
THIEF RVR FALL CLOUDY    63  59  88 SE6       29.80F
CROOKSTON      CLEAR     59  57  94 SE5       29.79F
FOSSTON        CLOUDY    61  57  88 SE6       29.82F
DETROIT LAKES  MOCLDY    61  61 100 SE9       29.83F
MOORHEAD       CLEAR     61  61 100 SE5       29.79F VSB 1
PARK RAPIDS    CLOUDY    62  61  96 SE3       29.85S
MAHNOMEN       CLOUDY    62  59  91 SE6       29.82F
$$
MNZ006-009>011-018-025>026-310500-
   North Central Minnesota

CITY           SKY/WX    TMP DP  RH WIND       PRES   REMARKS
BAUDETTE       CLEAR     57  53  86 CALM      29.84S
FLAG ISLAND    PTCLDY    64  54  68 SE8       29.82S
INTL FALLS     CLEAR     47  47 100 CALM      29.86F
WASKISH        CLOUDY    61  57  88 SE3       29.85S
BIG FORK       PTCLDY    59  55  88 CALM      29.88S
LONGVILLE      MOCLDY    61  61 100 CALM      29.86S
GRAND RAPIDS   MOCLDY    63  57  82 SE7       29.88F
CRANE LAKE     CLEAR     46  46 100 CALM      29.90S
ORR            CLOUDY    54  52  94 CALM      29.87R
COOK           CLOUDY    61  57  88 SE3       29.90S
WALKER         CLOUDY    63  60  91 SE5       29.85F
$$
MNZ012-019>021-037-310500-
   Northeast Minnesota

CITY           SKY/WX    TMP DP  RH WIND       PRES   REMARKS
DULUTH         CLOUDY    61  57  87 SE12      29.91S
ELY            CLOUDY    59  57  94 S3        29.92R
HIBBING        CLOUDY    62  58  86 SE10      29.91R
EVELETH        CLOUDY    59  59 100 S7        29.92R
DULUTH HARBOR  CLOUDY    63  61  94 E3        29.91F
TWO HARBORS    CLOUDY    57  54  88 CALM      29.91R
SILVER BAY     CLEAR     57  57 100 CALM      29.92R
GRAND MARAIS     N/A     56  54  93 CALM      29.91S
G MARAIS ARPRT CLEAR     52  48  87 CALM      29.95R FOG
$$
MNZ029>031-032-039>041-046>048-054>057-064-310500-
   West Central Minnesota

CITY           SKY/WX    TMP DP  RH WIND       PRES   REMARKS
FERGUS FALLS   CLEAR     61  59  94 SE7       29.80F
WHEATON        CLEAR     55  55 100 SE7       29.81F
MORRIS         CLEAR     57  57 100 SE5       29.82F FOG
ALEXANDRIA     PTCLDY    62  61  96 SE6       29.85F
ELBOW LAKE     FAIR      60  59  98 SE6       29.82F
WADENA         CLOUDY    61  59  94 CALM      29.84F FOG
GLENWOOD       FOG       59  57  94 SE3       29.85F VSB 3/4
APPLETON       CLEAR     61  57  88 SE5       29.82S
BENSON         CLEAR     61  61 100 S6        29.83F
ORTONVILLE     CLEAR     61  57  88 SE7       29.80F FOG
MADISON        CLEAR     63  61  94 SE7       29.82F
WILLMAR        FAIR      59  57  94 E5        29.86F FOG
$$
MNZ033>034-036-042>043-049>051-058-059-310500-
   Central Minnesota

CITY           SKY/WX    TMP DP  RH WIND       PRES   REMARKS
ST CLOUD       CLOUDY    68  64  87 SE5       29.86S
SAUK CENTRE    FAIR      63  63 100 CALM      29.85S
PAYNESVILLE    HVY RAIN  61  61 100 CALM      29.86S
AITKIN         MOCLDY    66  61  82 E6        29.86S
PINE RIVER     MOCLDY    61  61 100 CALM      29.89F
BRAINERD       CLOUDY    64  63  96 CALM      29.86F
STAPLES        CLOUDY    61  61 100 CALM      29.85S
LONG PRAIRIE   MOCLDY    63  63 100 SE3       29.86S
LITTLE FALLS   MOCLDY    64  61  88 SE3       29.86S
LITCHFIELD     CLEAR     64  64 100 SE3       29.86F
BUFFALO        PTCLDY    64  62  91 CALM      29.88S
MAPLE LAKE     CLOUDY    66  65  97 SE3       29.87F
$$
MNZ037-044-045-052-053-310500-
   East Central Minnesota

CITY           SKY/WX    TMP DP  RH WIND       PRES   REMARKS
PRINCETON      PTCLDY    66  63  88 E3        29.88R
MORA           PTCLDY    63  59  88 SE3       29.90S
CAMBRIDGE      PTCLDY    66  57  72 SE3       29.87R
RUSH CITY      CLOUDY    63  59  88 CALM      29.89S
MOOSE LAKE     CLOUDY    63  59  88 CALM      29.89S
HINCKLEY       CLOUDY    63  61  94 E5        29.90S
CLOQUET        CLOUDY    61  59  94 E7        29.91S
MCGREGOR       CLOUDY    63  61  94 E8        29.89S
$$
MNZ071>073-080-081-089-090-097-098-310500-
   Southwest Minnesota

CITY           SKY/WX    TMP DP  RH WIND       PRES   REMARKS
MONTEVIDEO     CLEAR     59  59 100 S6        29.84F FOG
GRANITE FALLS  CLEAR     60  60  99 E6        29.86S
CANBY          CLEAR     60  59  97 SE6       29.84S
MARSHALL       CLEAR     63  59  88 SE10      29.83F
REDWOOD FALLS  CLEAR     63  61  93 E6        29.85S
OLIVIA         CLEAR     61  59  94 SE3       29.85F
PIPESTONE      CLEAR     63  59  88 S6        29.86S
WINDOM         CLEAR     64  63  94 SE6       29.87S
WORTHINGTON    CLEAR     63  61  94 S7        29.88S
JACKSON        CLEAR     61  59  94 CALM      29.89R
TRACY          CLEAR     63  62  96 CALM      29.86S
SLAYTON        CLEAR     59  58  98 CALM      29.88S
$$
MNZ065>067-074>077-082>085-091>093-310500-
   South Central Minnesota

CITY           SKY/WX    TMP DP  RH WIND       PRES   REMARKS
MANKATO        CLEAR     64  59  82 E5        29.88S
NEW ULM        CLEAR     61  61 100 E3        29.87S
ST JAMES       CLEAR     64  63  94 E6        29.88S FOG
FAIRMONT       MOCLDY    63  57  82 E5        29.88S
GLENCOE        MOCLDY    67  63  88 SE5       29.87R
FARIBAULT      PTCLDY    68  61  77 E3        29.89S
OWATONNA       CLEAR     64  63  94 E3        29.90R
WASECA         CLEAR     61  57  88 CALM      29.91S
ALBERT LEA     CLEAR     64  64 100 CALM      29.90S FOG
$$
MNZ078>079-086>088-094>096-310500-
   Southeast Minnesota

CITY           SKY/WX    TMP DP  RH WIND       PRES   REMARKS
ROCHESTER      CLOUDY    65  62  90 E3        29.92R
RED WING       CLOUDY    64  63  94 CALM      29.89R
STANTON        MOCLDY    65  62  89 CALM      29.89R
DODGE CENTER   MOCLDY    66  64  94 E5        29.91R
WINONA         MOCLDY    64  61  88 CALM      29.91R
AUSTIN         CLEAR     63  63 100 CALM      29.90S FOG
PRESTON        CLEAR     64  64 100 CALM      29.92R
$$
ABBREVIATIONS USED IN REMARKS
   TC - TEMPERATURES IN CELSIUS
  WCI - WIND CHILL INDEX
   HX - HEAT INDEX
  VSB - VISIBILITY
$$



USA.gov is the U.S. government's official web portal to all federal, state and local government web resources and services.